Lincoln, CA

9:25 PM PDT on September 29, 2016 (GMT -0700)
Lincoln Regional-Harder

Weather History for KLHM - April, 2013

Change the Weather History Date:

Wednesday, April 17, 2013

  Actual Average (KAUN) Record (KAUN)
Temperature  
Mean Temperature 52 °F -  
Max Temperature 68 °F 66 °F 87 °F (1954)
Min Temperature 37 °F 45 °F 33 °F (1975)
Degree Days  
Heating Degree Days 12    
Growing Degree Days 2 (Base 50)    
Moisture  
Dew Point 29 °F    
Average Humidity 48    
Maximum Humidity 81    
Minimum Humidity 18    
Precipitation  
Precipitation 0.00 in - - ()
Sea Level Pressure  
Sea Level Pressure 30.20 in    
Wind  
Wind Speed 11 mph (NNW)    
Max Wind Speed 23 mph    
Max Gust Speed 31 mph    
Visibility 10 miles    
Events      
Averages and records for this station are not official NWS values.
T = Trace of Precipitation, MM = Missing Value Source: NWS Daily Summary

Daily Weather History Graph

Daily Weather History Graph

Search for Another Location

Airport or City:

Trip Planner

Search our weather history database for the weather conditions in past years. The results will help you decide how hot, cold, wet, or windy it might be!

Date:

Astronomy

Apr. 17, 2013 Rise Set
Actual Time 6:25 AM PDT 7:44 PM PDT
Civil Twilight 5:57 AM PDT 8:12 PM PDT
Nautical Twilight 5:24 AM PDT 8:45 PM PDT
Astronomical Twilight 4:49 AM PDT 9:20 PM PDT
Moon 11:45 AM PDT (4/17) 1:24 AM PDT (4/17)
Length of Visible Light 14h 14m
Length of Day
13h 19m
Waxing Crescent, 43% of the Moon is Illuminated
Apr 17
Waxing Crescent
Apr 18
First Quarter
Apr 25
Full
May 2
Last Quarter
May 9
New

Hourly Weather History & Observations

Time (PDT) Temp. Windchill Dew Point Humidity Pressure Visibility Wind Dir Wind Speed Gust Speed Precip Events Conditions
12:15 AM 42.8 °F 39.3 °F 32.0 °F 66% 30.16 in 10.0 mi North 5.8 mph - N/A   Clear
12:35 AM 41.0 °F 37.1 °F 32.0 °F 70% 30.16 in 10.0 mi NNW 5.8 mph - N/A   Clear
12:55 AM 39.2 °F 33.0 °F 32.0 °F 75% 30.17 in 10.0 mi NNW 9.2 mph - N/A   Clear
1:15 AM 41.0 °F 34.7 °F 32.0 °F 70% 30.18 in 10.0 mi NNW 10.4 mph - N/A   Clear
1:35 AM 41.0 °F 35.2 °F 32.0 °F 70% 30.19 in 10.0 mi NNW 9.2 mph - N/A   Clear
1:55 AM 42.8 °F 37.5 °F 32.0 °F 66% 30.19 in 10.0 mi NNW 9.2 mph - N/A   Clear
2:15 AM 42.8 °F 35.8 °F 32.0 °F 66% 30.19 in 10.0 mi North 13.8 mph - N/A   Clear
2:35 AM 41.0 °F 34.7 °F 32.0 °F 70% 30.19 in 10.0 mi NNW 10.4 mph - N/A   Clear
2:55 AM 39.2 °F 33.0 °F 32.0 °F 75% 30.19 in 10.0 mi North 9.2 mph - N/A   Clear
3:15 AM 37.4 °F 30.3 °F 32.0 °F 81% 30.19 in 10.0 mi NNW 10.4 mph - N/A   Clear
3:35 AM 37.4 °F 30.8 °F 32.0 °F 81% 30.19 in 10.0 mi NNW 9.2 mph - N/A   Clear
3:55 AM 39.2 °F 32.0 °F 32.0 °F 75% 30.19 in 10.0 mi NNW 11.5 mph - N/A   Clear
4:15 AM 39.2 °F 32.5 °F 32.0 °F 75% 30.19 in 10.0 mi NNW 10.4 mph - N/A   Clear
4:35 AM 39.2 °F 33.0 °F 32.0 °F 75% 30.19 in 10.0 mi North 9.2 mph - N/A   Clear
4:55 AM 39.2 °F 33.0 °F 32.0 °F 75% 30.20 in 10.0 mi North 9.2 mph - N/A   Clear
5:15 AM 41.0 °F 33.9 °F 32.0 °F 70% 30.19 in 10.0 mi NNW 12.7 mph - N/A   Clear
5:35 AM 41.0 °F 33.9 °F 32.0 °F 70% 30.20 in 10.0 mi NNW 12.7 mph - N/A   Clear
5:55 AM 39.2 °F 32.5 °F 32.0 °F 75% 30.21 in 10.0 mi NNW 10.4 mph - N/A   Clear
6:15 AM 37.4 °F 29.3 °F 32.0 °F 81% 30.22 in 10.0 mi NNW 12.7 mph - N/A   Clear
6:35 AM 37.4 °F 29.3 °F 32.0 °F 81% 30.22 in 10.0 mi NNW 12.7 mph - N/A   Clear
6:55 AM 37.4 °F 30.3 °F 32.0 °F 81% 30.23 in 10.0 mi NNW 10.4 mph - N/A   Clear
7:15 AM 39.2 °F 31.6 °F 32.0 °F 75% 30.23 in 10.0 mi NNW 12.7 mph - N/A   Clear
7:35 AM 41.0 °F 33.5 °F 32.0 °F 70% 30.24 in 10.0 mi NNW 13.8 mph - N/A   Clear
7:55 AM 42.8 °F 36.2 °F 32.0 °F 66% 30.24 in 10.0 mi NNW 12.7 mph - N/A   Clear
8:15 AM 44.6 °F 39.2 °F 33.8 °F 66% 30.25 in 10.0 mi North 10.4 mph - N/A   Clear
8:35 AM 46.4 °F 41.9 °F 33.8 °F 62% 30.25 in 10.0 mi NNW 9.2 mph - N/A   Clear
8:55 AM 51.8 °F - 33.8 °F 50% 30.25 in 10.0 mi NNW 12.7 mph - N/A   Clear
9:15 AM 53.6 °F - 33.8 °F 47% 30.25 in 10.0 mi NNW 11.5 mph - N/A   Clear
9:35 AM 55.4 °F - 32.0 °F 41% 30.25 in 10.0 mi NNW 16.1 mph 21.9 mph N/A   Clear
9:55 AM 57.2 °F - 28.4 °F 33% 30.25 in 10.0 mi NNW 19.6 mph 23.0 mph N/A   Clear
10:15 AM 59.0 °F - 24.8 °F 27% 30.24 in 10.0 mi NNW 23.0 mph 27.6 mph N/A   Clear
10:35 AM 59.0 °F - 23.0 °F 25% 30.24 in 10.0 mi NNW 21.9 mph 28.8 mph N/A   Clear
10:55 AM 60.8 °F - 24.8 °F 25% 30.25 in 10.0 mi NNW 19.6 mph 27.6 mph N/A   Clear
11:15 AM 60.8 °F - 24.8 °F 25% 30.25 in 10.0 mi NNW 17.3 mph 24.2 mph N/A   Clear
11:35 AM 60.8 °F - 24.8 °F 25% 30.24 in 10.0 mi NNW 15.0 mph 26.5 mph N/A   Clear
11:55 AM 62.6 °F - 26.6 °F 26% 30.24 in 10.0 mi NNW 20.7 mph 27.6 mph N/A   Clear
12:15 PM 62.6 °F - 26.6 °F 26% 30.24 in 10.0 mi NW 16.1 mph 29.9 mph N/A   Clear
12:35 PM 62.6 °F - 26.6 °F 26% 30.24 in 10.0 mi NNW 20.7 mph 26.5 mph N/A   Clear
12:55 PM 62.6 °F - 26.6 °F 26% 30.23 in 10.0 mi NW 19.6 mph 28.8 mph N/A   Clear
1:55 PM 64.4 °F - 26.6 °F 24% 30.22 in 10.0 mi NW 19.6 mph 31.1 mph N/A   Clear
2:15 PM 66.2 °F - 26.6 °F 23% 30.21 in 10.0 mi NW 18.4 mph 26.5 mph N/A   Clear
2:35 PM 66.2 °F - 26.6 °F 23% 30.21 in 10.0 mi NW 17.3 mph 29.9 mph N/A   Clear
2:55 PM 68.0 °F - 26.6 °F 21% 30.20 in 10.0 mi NW 19.6 mph 31.1 mph N/A   Clear
3:15 PM 68.0 °F - 24.8 °F 20% 30.19 in 10.0 mi NW 20.7 mph 26.5 mph N/A   Clear
3:35 PM 68.0 °F - 26.6 °F 21% 30.19 in 10.0 mi NW 18.4 mph 26.5 mph N/A   Clear
3:55 PM 68.0 °F - 26.6 °F 21% 30.19 in 10.0 mi NNW 17.3 mph 24.2 mph N/A   Clear
4:15 PM 68.0 °F - 24.8 °F 20% 30.18 in 10.0 mi NW 17.3 mph 27.6 mph N/A   Clear
4:35 PM 68.0 °F - 26.6 °F 21% 30.17 in 10.0 mi NW 16.1 mph 24.2 mph N/A   Clear
4:55 PM 68.0 °F - 24.8 °F 20% 30.17 in 10.0 mi NW 16.1 mph 23.0 mph N/A   Clear
5:15 PM 68.0 °F - 23.0 °F 18% 30.16 in 10.0 mi NW 15.0 mph 27.6 mph N/A   Clear
5:35 PM 68.0 °F - 26.6 °F 21% 30.16 in 10.0 mi NW 18.4 mph 26.5 mph N/A   Clear
5:55 PM 68.0 °F - 23.0 °F 18% 30.16 in 10.0 mi NNW 15.0 mph 25.3 mph N/A   Clear
6:15 PM 66.2 °F - 23.0 °F 19% 30.16 in 10.0 mi NW 16.1 mph 23.0 mph N/A   Clear
6:35 PM 64.4 °F - 23.0 °F 21% 30.16 in 10.0 mi NW 17.3 mph 23.0 mph N/A   Clear
6:55 PM 64.4 °F - 24.8 °F 22% 30.16 in 10.0 mi NNW 16.1 mph 21.9 mph N/A   Clear
7:15 PM 62.6 °F - 26.6 °F 26% 30.17 in 10.0 mi NNW 12.7 mph - N/A   Clear
7:35 PM 60.8 °F - 28.4 °F 29% 30.17 in 10.0 mi NNW 10.4 mph - N/A   Clear
7:55 PM 55.4 °F - 30.2 °F 38% 30.17 in 10.0 mi NNW 8.1 mph - N/A   Clear
8:15 PM 53.6 °F - 30.2 °F 41% 30.18 in 10.0 mi North 5.8 mph - N/A   Clear
8:35 PM 55.4 °F - 28.4 °F 36% 30.18 in 10.0 mi North 5.8 mph - N/A   Clear
8:55 PM 50.0 °F - 32.0 °F 50% 30.19 in 10.0 mi NNE 5.8 mph - N/A   Clear
9:35 PM 46.4 °F 44.3 °F 33.8 °F 62% 30.20 in 10.0 mi NE 4.6 mph - N/A   Clear
9:55 PM 46.4 °F 45.2 °F 32.0 °F 57% 30.21 in 10.0 mi East 3.5 mph - N/A   Clear
10:15 PM 48.2 °F - 32.0 °F 54% 30.21 in 10.0 mi North 3.5 mph - N/A   Clear
10:35 PM 46.4 °F 45.2 °F 32.0 °F 57% 30.21 in 10.0 mi NNW 3.5 mph - N/A   Clear
10:55 PM 46.4 °F 45.2 °F 33.8 °F 62% 30.20 in 10.0 mi NW 3.5 mph - N/A   Clear
11:15 PM 44.6 °F 42.2 °F 32.0 °F 61% 30.20 in 10.0 mi NNE 4.6 mph - N/A   Clear
11:35 PM 41.0 °F 39.0 °F 33.8 °F 76% 30.21 in 10.0 mi WNW 3.5 mph - N/A   Clear
11:55 PM 44.6 °F 43.1 °F 32.0 °F 61% 30.21 in 10.0 mi NNW 3.5 mph - N/A   Clear